Carmi, IL

8:51 AM CDT on August 25, 2016 (GMT -0500)
Carmi Municipal

Weather History for KCUL - March, 2013

Change the Weather History Date:

Saturday, March 23, 2013

  Actual Average (KEVV) Record (KEVV)
Temperature  
Mean Temperature 46 °F 48 °F  
Max Temperature 56 °F 59 °F 84 °F (1910)
Min Temperature 36 °F 37 °F 16 °F (1968)
Degree Days  
Heating Degree Days 19 17  
Month to date heating degree days 468  
Since 1 July heating degree days 4042  
Cooling Degree Days 0 0  
Month to date cooling degree days 0  
Year to date cooling degree days 0  
Moisture  
Dew Point 31 °F    
Average Humidity 56    
Maximum Humidity 75    
Minimum Humidity 37    
Precipitation  
Precipitation 0.00 in 0.15 in 1.03 in (1999)
Month to date precipitation 3.06  
Year to date precipitation 9.33  
Snow  
Snow 0.00 in 0.00 in 2.40 in (1974)
Month to date snowfall 0.9  
Since 1 July snowfall 11.6  
Snow Depth -    
Sea Level Pressure  
Sea Level Pressure 29.95 in    
Wind  
Wind Speed 6 mph (NE)    
Max Wind Speed 16 mph    
Max Gust Speed 20 mph    
Visibility 10 miles    
Events Rain    
T = Trace of Precipitation, MM = Missing Value Source: NWS Daily Summary

Daily Weather History Graph

Daily Weather History Graph

Search for Another Location

Airport or City:

Trip Planner

Search our weather history database for the weather conditions in past years. The results will help you decide how hot, cold, wet, or windy it might be!

Date:

Astronomy

Mar. 23, 2013 Rise Set
Actual Time 6:50 AM CDT 7:07 PM CDT
Civil Twilight 6:24 AM CDT 7:33 PM CDT
Nautical Twilight 5:53 AM CDT 8:04 PM CDT
Astronomical Twilight 5:22 AM CDT 8:36 PM CDT
Moon 3:36 PM CDT (3/23) 4:24 AM CDT (3/23)
Length of Visible Light 13h 09m
Length of Day
12h 16m
Waxing Gibbous, 85% of the Moon is Illuminated
Mar 23
Waxing Gibbous
Mar 27
Full
Apr 2
Last Quarter
Apr 10
New
Apr 18
First Quarter

Hourly Weather History & Observations

Time (CDT) Temp. Windchill Dew Point Humidity Pressure Visibility Wind Dir Wind Speed Gust Speed Precip Events Conditions
12:15 AM 38.5 °F 36.1 °F 31.3 °F 75% 30.02 in 10.0 mi NE 3.5 mph - N/A   Overcast
12:35 AM 38.5 °F 35.0 °F 31.1 °F 75% 30.02 in 10.0 mi NE 4.6 mph - N/A   Overcast
12:55 AM 38.5 °F 36.1 °F 30.6 °F 73% 30.02 in 10.0 mi NE 3.5 mph - N/A   Overcast
1:15 AM 38.7 °F - 30.6 °F 73% 30.03 in 10.0 mi Calm Calm - N/A   Overcast
1:35 AM 38.5 °F - 30.6 °F 73% 30.03 in 10.0 mi Calm Calm - N/A   Overcast
1:55 AM 38.5 °F 36.1 °F 29.7 °F 71% 30.02 in 10.0 mi NNE 3.5 mph - N/A   Overcast
2:15 AM 38.5 °F 36.1 °F 29.8 °F 71% 30.02 in 10.0 mi NNE 3.5 mph - N/A   Overcast
2:35 AM 38.3 °F 34.8 °F 30.2 °F 73% 30.00 in 10.0 mi NNE 4.6 mph - N/A   Overcast
3:35 AM 38.5 °F 34.1 °F 28.8 °F 68% 30.00 in 10.0 mi NNE 5.8 mph - N/A   Overcast
3:55 AM 38.7 °F 33.6 °F 27.7 °F 65% 30.00 in 10.0 mi NNE 6.9 mph - N/A   Overcast
4:15 AM 38.5 °F 34.1 °F 28.0 °F 66% 30.00 in 10.0 mi NNE 5.8 mph - N/A   Overcast
4:35 AM 38.3 °F 33.9 °F 28.0 °F 67% 30.00 in 10.0 mi NE 5.8 mph - N/A   Overcast
4:55 AM 38.5 °F 35.0 °F 27.0 °F 63% 30.00 in 10.0 mi NE 4.6 mph - N/A   Overcast
5:15 AM 38.5 °F 34.1 °F 27.1 °F 64% 30.00 in 10.0 mi NNE 5.8 mph - N/A   Overcast
5:35 AM 38.3 °F 34.8 °F 28.4 °F 68% 30.01 in 10.0 mi NE 4.6 mph - N/A   Overcast
5:55 AM 38.3 °F 34.8 °F 28.6 °F 68% 30.01 in 10.0 mi NE 4.6 mph - N/A   Overcast
6:15 AM 37.9 °F 34.4 °F 28.4 °F 69% 30.02 in 10.0 mi NNE 4.6 mph - N/A   Overcast
6:35 AM 36.9 °F 32.2 °F 28.2 °F 71% 30.02 in 10.0 mi NE 5.8 mph - N/A   Mostly Cloudy
6:55 AM 37.0 °F 32.4 °F 28.9 °F 73% 30.02 in 10.0 mi ENE 5.8 mph - N/A   Overcast
7:15 AM 37.4 °F 34.9 °F 29.7 °F 74% 30.03 in 10.0 mi NE 3.5 mph - N/A   Overcast
7:35 AM 37.9 °F 33.5 °F 29.3 °F 71% 30.04 in 10.0 mi NNE 5.8 mph - N/A   Overcast
7:55 AM 39.2 °F 35.0 °F 29.1 °F 67% 30.04 in 10.0 mi NE 5.8 mph - N/A   Overcast
8:15 AM 39.9 °F 34.5 °F 27.7 °F 62% 30.04 in 10.0 mi NNE 8.1 mph - N/A   Overcast
8:35 AM 40.5 °F 35.1 °F 27.5 °F 60% 30.04 in 10.0 mi NE 8.1 mph - N/A   Overcast
8:55 AM 41.0 °F 35.8 °F 27.0 °F 57% 30.04 in 10.0 mi NNE 8.1 mph - N/A   Overcast
9:15 AM 41.7 °F 36.7 °F 26.6 °F 55% 30.04 in 10.0 mi NNE 8.1 mph - N/A   Overcast
9:35 AM 42.3 °F 36.8 °F 26.4 °F 54% 30.03 in 10.0 mi NE 9.2 mph - N/A   Overcast
9:55 AM 43.0 °F 37.2 °F 26.4 °F 52% 30.03 in 10.0 mi NE 10.4 mph - N/A   Overcast
10:15 AM 43.9 °F 38.8 °F 26.6 °F 51% 30.03 in 10.0 mi NE 9.2 mph - N/A   Mostly Cloudy
10:35 AM 45.5 °F 40.8 °F 27.0 °F 48% 30.03 in 10.0 mi ENE 9.2 mph - N/A   Overcast
10:55 AM 46.4 °F 41.9 °F 27.0 °F 47% 30.03 in 10.0 mi NE 9.2 mph - N/A   Overcast
11:15 AM 47.5 °F - 26.1 °F 43% 30.03 in 10.0 mi East 8.1 mph 16.1 mph N/A   Overcast
11:35 AM 48.0 °F - 24.6 °F 40% 30.02 in 10.0 mi East 10.4 mph - N/A   Overcast
11:55 AM 48.2 °F - 24.8 °F 40% 30.02 in 10.0 mi ENE 10.4 mph - N/A   Overcast
12:15 PM 50.0 °F - 24.3 °F 37% 30.02 in 10.0 mi NE 11.5 mph - N/A   Scattered Clouds
12:35 PM 50.9 °F - 29.1 °F 43% 30.00 in 10.0 mi NNE 6.9 mph - N/A   Clear
12:55 PM 51.6 °F - 29.5 °F 43% 30.00 in 10.0 mi NE 8.1 mph - N/A   Clear
1:15 PM 52.9 °F - 28.2 °F 39% 29.99 in - ENE 3.5 mph - N/A   Clear
1:35 PM 53.6 °F - 31.1 °F 42% 29.98 in 10.0 mi ENE 10.4 mph - N/A   Clear
1:55 PM 54.3 °F - 32.9 °F 44% 29.96 in 10.0 mi ENE 8.1 mph - N/A   Clear
2:15 PM 54.5 °F - 32.2 °F 43% 29.96 in 10.0 mi NE 10.4 mph - N/A   Clear
2:35 PM 55.2 °F - 33.8 °F 44% 29.94 in 10.0 mi NE 12.7 mph - N/A   Clear
2:55 PM 55.2 °F - 34.0 °F 45% 29.93 in 10.0 mi NE 6.9 mph - N/A   Clear
3:15 PM 55.4 °F - 33.6 °F 44% 29.92 in 10.0 mi NE 11.5 mph - N/A   Clear
3:35 PM 55.8 °F - 35.1 °F 46% 29.92 in 10.0 mi NE 9.2 mph - N/A   Clear
3:55 PM 55.8 °F - 34.0 °F 44% 29.90 in 10.0 mi NE 10.4 mph - N/A   Clear
4:15 PM 56.1 °F - 33.8 °F 43% 29.90 in 10.0 mi NE 13.8 mph 17.3 mph N/A   Clear
4:35 PM 56.1 °F - 33.4 °F 42% 29.90 in 10.0 mi NNE 9.2 mph - N/A   Clear
4:55 PM 56.8 °F - 35.2 °F 44% 29.90 in 10.0 mi East 11.5 mph - N/A   Clear
5:15 PM 56.3 °F - 34.7 °F 44% 29.89 in 10.0 mi ENE 10.4 mph - N/A   Clear
5:35 PM 55.0 °F - 34.9 °F 47% 29.88 in 10.0 mi ENE 12.7 mph - N/A   Clear
5:55 PM 54.5 °F - 34.2 °F 46% 29.87 in 10.0 mi NE 11.5 mph - N/A   Clear
6:15 PM 53.8 °F - 34.5 °F 48% 29.86 in 10.0 mi NE 9.2 mph - N/A   Clear
6:35 PM 52.9 °F - 35.6 °F 52% 29.85 in 10.0 mi NNE 9.2 mph - N/A   Clear
6:55 PM 51.4 °F - 37.4 °F 59% 29.84 in 10.0 mi NE 8.1 mph - N/A   Mostly Cloudy
7:15 PM 51.1 °F - 36.7 °F 58% 29.84 in 10.0 mi NE 5.8 mph - N/A   Overcast
7:35 PM 50.0 °F - 38.3 °F 64% 29.83 in 10.0 mi NE 6.9 mph - N/A   Overcast
7:55 PM 50.0 °F - 37.4 °F 62% 29.84 in 10.0 mi NNE 5.8 mph - N/A   Overcast
8:15 PM 50.0 °F - 38.3 °F 64% 29.83 in 10.0 mi NNE 5.8 mph - N/A   Overcast
8:35 PM 50.5 °F - 36.1 °F 58% 29.82 in 10.0 mi NE 9.2 mph - N/A   Overcast
8:55 PM 51.4 °F - 33.1 °F 50% 29.82 in 10.0 mi ENE 13.8 mph - N/A   Overcast
9:15 PM 51.4 °F - 32.5 °F 49% 29.82 in 10.0 mi ENE 13.8 mph - N/A   Mostly Cloudy
9:35 PM 51.4 °F - 32.0 °F 47% 29.81 in 10.0 mi ENE 16.1 mph - N/A   Overcast
9:55 PM 50.9 °F - 32.4 °F 49% 29.80 in 10.0 mi ENE 12.7 mph 19.6 mph N/A   Overcast
10:15 PM 50.2 °F - 32.7 °F 51% 29.80 in 10.0 mi ENE 11.5 mph - N/A   Overcast
10:35 PM 50.0 °F - 32.7 °F 52% 29.80 in 10.0 mi NE 12.7 mph - N/A   Overcast
10:55 PM 49.6 °F - 32.9 °F 53% 29.81 in 10.0 mi NNE 6.9 mph - N/A Rain Light Rain
11:15 PM 47.8 °F - 34.0 °F 59% 29.79 in 10.0 mi NE 11.5 mph - N/A Rain Rain
11:35 PM 46.6 °F - 35.8 °F 66% 29.79 in 10.0 mi NNE 10.4 mph - N/A   Overcast
11:55 PM 46.4 °F 41.5 °F 35.6 °F 66% 29.79 in 10.0 mi NE 10.4 mph - N/A   Overcast